Charlevoix, MI

10:32 AM EDT on April 27, 2017 (GMT -0400)
Charlevoix Municipal

Weather History for KCVX - March, 2013

Change the Weather History Date:

Tuesday, March 26, 2013

  Actual Average Record
Temperature  
Mean Temperature 35 °F -  
Max Temperature 38 °F 35 °F 64 °F (2007)
Min Temperature 32 °F 26 °F 2 °F (2014)
Degree Days  
Heating Degree Days 30    
Moisture  
Dew Point 30 °F    
Average Humidity 86    
Maximum Humidity 96    
Minimum Humidity 64    
Precipitation  
Precipitation 0.00 in - - ()
Sea Level Pressure  
Sea Level Pressure 30.09 in    
Wind  
Wind Speed 7 mph (NW)    
Max Wind Speed 15 mph    
Max Gust Speed 21 mph    
Visibility 10 miles    
Events Snow    
Averages and records for this station are not official NWS values.
T = Trace of Precipitation, MM = Missing Value Source: NWS Daily Summary

Daily Weather History Graph

Daily Weather History Graph

Search for Another Location

Airport or City:

Trip Planner

Search our weather history database for the weather conditions in past years. The results will help you decide how hot, cold, wet, or windy it might be!

Date:

Astronomy

Mar. 26, 2013 Rise Set
Actual Time 7:32 AM EDT 8:01 PM EDT
Civil Twilight 7:02 AM EDT 8:31 PM EDT
Nautical Twilight 6:27 AM EDT 9:06 PM EDT
Astronomical Twilight 5:51 AM EDT 9:42 PM EDT
Moon 7:38 PM EDT (3/26) 6:49 AM EDT (3/26)
Length of Visible Light 13h 28m
Length of Day
12h 29m
Waxing Gibbous, 99% of the Moon is Illuminated
Mar 26
Waxing Gibbous
Mar 27
Full
Apr 3
Last Quarter
Apr 10
New
Apr 18
First Quarter

Hourly Weather History & Observations

Time (EDT) Temp. Windchill Dew Point Humidity Pressure Visibility Wind Dir Wind Speed Gust Speed Precip Events Conditions
12:15 AM 33.3 °F 27.9 °F 30.2 °F 89% 30.02 in 10.0 mi NNW 5.8 mph - N/A   Overcast
12:34 AM 33.3 °F 27.1 °F 30.7 °F 90% 30.02 in 10.0 mi NNW 6.9 mph - N/A   Overcast
12:55 AM 33.1 °F 26.1 °F 30.6 °F 90% 30.02 in 10.0 mi NNW 8.1 mph - N/A   Overcast
1:14 AM 33.3 °F - 30.7 °F 90% 30.02 in 10.0 mi Calm Calm - N/A   Overcast
1:34 AM 33.3 °F 30.2 °F 30.7 °F 90% 30.02 in 10.0 mi NNW 3.5 mph - N/A   Overcast
1:55 AM 33.3 °F 27.9 °F 30.9 °F 91% 30.03 in 10.0 mi NNW 5.8 mph - N/A   Overcast
2:14 AM 33.3 °F 27.9 °F 31.1 °F 92% 30.03 in 10.0 mi North 5.8 mph - N/A   Overcast
2:35 AM 33.1 °F 26.9 °F 31.1 °F 92% 30.03 in 10.0 mi North 6.9 mph - N/A   Overcast
2:54 AM 33.1 °F 27.7 °F 30.9 °F 92% 30.03 in 10.0 mi North 5.8 mph - N/A   Overcast
3:15 AM 33.1 °F 26.9 °F 31.1 °F 92% 30.03 in 10.0 mi North 6.9 mph - N/A   Overcast
3:34 AM 32.9 °F 26.7 °F 31.3 °F 94% 30.02 in 10.0 mi North 6.9 mph - N/A   Overcast
3:55 AM 32.9 °F 26.7 °F 31.5 °F 94% 30.02 in 10.0 mi North 6.9 mph - N/A   Overcast
4:14 AM 32.9 °F 26.7 °F 31.5 °F 94% 30.02 in 10.0 mi North 6.9 mph - N/A   Overcast
4:34 AM 33.1 °F 26.9 °F 31.5 °F 94% 30.02 in 10.0 mi North 6.9 mph - N/A   Overcast
4:54 AM 32.9 °F 26.7 °F 31.5 °F 94% 30.02 in 10.0 mi North 6.9 mph - N/A   Overcast
5:14 AM 33.1 °F 25.5 °F 31.1 °F 92% 30.03 in 10.0 mi North 9.2 mph - N/A   Overcast
5:35 AM 33.1 °F 26.1 °F 31.1 °F 92% 30.03 in 10.0 mi North 8.1 mph - N/A   Overcast
5:54 AM 33.1 °F 26.1 °F 31.5 °F 94% 30.03 in 10.0 mi North 8.1 mph - N/A   Overcast
6:15 AM 32.9 °F 28.5 °F 31.1 °F 93% 30.04 in 10.0 mi NNW 4.6 mph - N/A   Overcast
6:34 AM 32.9 °F 28.5 °F 31.5 °F 94% 30.05 in 10.0 mi NW 4.6 mph - N/A   Overcast
6:54 AM 32.7 °F 27.3 °F 31.5 °F 95% 30.05 in 10.0 mi NNW 5.8 mph - N/A   Overcast
7:14 AM 32.5 °F 28.1 °F 31.6 °F 96% 30.05 in 10.0 mi NNW 4.6 mph - N/A   Overcast
7:34 AM 32.7 °F 28.3 °F 31.6 °F 96% 30.06 in 10.0 mi North 4.6 mph - N/A   Overcast
7:55 AM 32.9 °F 28.5 °F 32.0 °F 96% 30.06 in 10.0 mi NNW 4.6 mph - N/A   Overcast
8:14 AM 32.9 °F 28.5 °F 32.0 °F 96% 30.07 in 10.0 mi NNW 4.6 mph - N/A   Overcast
8:35 AM 32.9 °F 27.5 °F 32.0 °F 96% 30.08 in 10.0 mi NNW 5.8 mph - N/A   Overcast
8:55 AM 32.9 °F 27.5 °F 32.0 °F 96% 30.08 in 10.0 mi NNW 5.8 mph - N/A   Overcast
9:14 AM 32.9 °F 28.5 °F 32.0 °F 96% 30.09 in 10.0 mi NNW 4.6 mph - N/A   Overcast
9:35 AM 32.9 °F 26.7 °F 32.0 °F 96% 30.09 in 10.0 mi NNW 6.9 mph - N/A   Overcast
9:54 AM 33.1 °F 26.1 °F 32.0 °F 96% 30.09 in 10.0 mi NNW 8.1 mph - N/A   Overcast
10:14 AM 33.1 °F 26.9 °F 32.0 °F 96% 30.10 in 10.0 mi North 6.9 mph - N/A Snow Light Snow
10:35 AM 33.3 °F 26.4 °F 32.0 °F 95% 30.10 in 10.0 mi North 8.1 mph - N/A   Overcast
10:54 AM 33.3 °F 27.1 °F 32.2 °F 96% 30.11 in 7.0 mi North 6.9 mph - N/A   Overcast
11:15 AM 33.3 °F 27.9 °F 32.0 °F 95% 30.12 in 10.0 mi North 5.8 mph - N/A   Overcast
11:35 AM 33.3 °F 27.1 °F 32.0 °F 95% 30.12 in 4.0 mi North 6.9 mph - N/A Snow Light Snow
11:54 AM 33.8 °F 27.7 °F 31.5 °F 91% 30.12 in 10.0 mi North 6.9 mph - N/A   Overcast
12:15 PM 34.3 °F 28.4 °F 31.6 °F 90% 30.12 in 10.0 mi NW 6.9 mph - N/A   Overcast
12:34 PM 34.9 °F 30.8 °F 31.8 °F 89% 30.12 in 10.0 mi NW 4.6 mph - N/A   Overcast
12:55 PM 35.8 °F 29.4 °F 31.3 °F 84% 30.12 in 10.0 mi NNW 8.1 mph - N/A   Overcast
1:14 PM 36.0 °F 29.0 °F 30.4 °F 80% 30.12 in 10.0 mi NW 9.2 mph - N/A   Overcast
1:34 PM 36.3 °F 30.8 °F 30.0 °F 78% 30.12 in 10.0 mi NW 6.9 mph - N/A   Overcast
1:55 PM 37.6 °F 30.5 °F 29.5 °F 73% 30.12 in 10.0 mi WNW 10.4 mph - N/A   Overcast
2:14 PM 37.8 °F 31.8 °F 30.2 °F 74% 30.12 in 10.0 mi WNW 8.1 mph - N/A   Mostly Cloudy
2:34 PM 37.4 °F 29.3 °F 30.2 °F 75% 30.12 in 10.0 mi WNW 12.7 mph - N/A   Scattered Clouds
2:55 PM 37.6 °F 30.5 °F 30.4 °F 75% 30.12 in 10.0 mi WNW 10.4 mph - N/A   Clear
3:14 PM 37.8 °F 31.3 °F 29.7 °F 73% 30.11 in 10.0 mi NW 9.2 mph 18.4 mph N/A   Clear
3:35 PM 37.9 °F 29.2 °F 26.6 °F 64% 30.10 in 10.0 mi NW 15.0 mph 20.7 mph N/A   Clear
3:55 PM 37.9 °F 31.5 °F 28.4 °F 69% 30.10 in 10.0 mi WNW 9.2 mph - N/A   Clear
4:14 PM 38.3 °F 31.4 °F 28.8 °F 69% 30.10 in 10.0 mi West 10.4 mph - N/A   Clear
4:35 PM 37.9 °F 30.9 °F 31.1 °F 76% 30.10 in 10.0 mi West 10.4 mph - N/A   Clear
4:54 PM 38.3 °F 31.9 °F 30.9 °F 75% 30.10 in 10.0 mi WNW 9.2 mph - N/A   Clear
5:14 PM 37.4 °F 30.3 °F 29.5 °F 73% 30.10 in 10.0 mi WNW 10.4 mph - N/A   Clear
5:35 PM 37.4 °F 29.3 °F 28.4 °F 70% 30.10 in 10.0 mi NW 12.7 mph - N/A   Clear
5:54 PM 37.0 °F 28.9 °F 28.6 °F 71% 30.10 in 10.0 mi WNW 12.7 mph 16.1 mph N/A   Clear
6:15 PM 36.9 °F 29.6 °F 29.3 °F 74% 30.11 in 10.0 mi WNW 10.4 mph - N/A   Clear
6:34 PM 36.5 °F 29.2 °F 29.3 °F 75% 30.12 in 10.0 mi NW 10.4 mph - N/A   Clear
6:55 PM 36.1 °F 28.2 °F 29.3 °F 76% 30.12 in 10.0 mi NW 11.5 mph - N/A   Clear
7:14 PM 36.0 °F 29.0 °F 29.1 °F 76% 30.13 in 10.0 mi NW 9.2 mph - N/A   Clear
7:34 PM 35.4 °F 29.7 °F 28.9 °F 77% 30.13 in 10.0 mi NW 6.9 mph - N/A   Scattered Clouds
7:54 PM 34.9 °F 27.7 °F 28.2 °F 77% 30.14 in 10.0 mi NW 9.2 mph - N/A   Scattered Clouds
8:14 PM 34.3 °F 27.7 °F 27.7 °F 77% 30.14 in 10.0 mi NW 8.1 mph - N/A   Clear
8:34 PM 34.0 °F 27.2 °F 27.9 °F 78% 30.14 in 10.0 mi NW 8.1 mph - N/A   Clear
8:54 PM 33.8 °F 27.0 °F 28.2 °F 80% 30.15 in 10.0 mi NW 8.1 mph - N/A   Clear
9:14 PM 33.8 °F 27.0 °F 27.7 °F 78% 30.15 in 10.0 mi WNW 8.1 mph - N/A   Clear
9:35 PM 33.3 °F 26.4 °F 28.4 °F 82% 30.16 in 10.0 mi NW 8.1 mph - N/A   Clear
9:55 PM 33.1 °F 26.1 °F 28.2 °F 82% 30.16 in 10.0 mi NW 8.1 mph - N/A   Clear
10:14 PM 33.1 °F 27.7 °F 28.2 °F 82% 30.16 in 10.0 mi WNW 5.8 mph - N/A   Clear
10:35 PM 33.3 °F 25.7 °F 27.5 °F 79% 30.16 in 10.0 mi NW 9.2 mph - N/A   Clear
10:54 PM 32.5 °F 24.2 °F 28.0 °F 83% 30.15 in 10.0 mi WNW 10.4 mph - N/A   Scattered Clouds
11:15 PM 32.9 °F 25.3 °F 28.0 °F 82% 30.16 in 10.0 mi NW 9.2 mph - N/A   Clear
11:34 PM 32.5 °F 25.5 °F 28.2 °F 84% 30.16 in 10.0 mi WNW 8.1 mph - N/A   Clear
11:55 PM 32.5 °F 25.5 °F 28.9 °F 87% 30.16 in 10.0 mi WNW 8.1 mph - N/A   Scattered Clouds